Year,Month,Day,Hour,Minute,Value (Times are PST for temperature in C)
2012,09,28,00,00,11.40
2012,09,28,00,01,11.40
2012,09,28,00,02,11.40
2012,09,28,00,03,11.40
2012,09,28,00,04,11.40
2012,09,28,00,05,11.40
2012,09,28,00,06,11.30
2012,09,28,00,07,11.30
2012,09,28,00,08,11.30
2012,09,28,00,09,11.30
2012,09,28,00,10,11.30
2012,09,28,00,11,11.30
2012,09,28,00,12,11.30
2012,09,28,00,13,11.30
2012,09,28,00,14,11.30
2012,09,28,00,15,11.30
2012,09,28,00,16,11.20
2012,09,28,00,17,11.20
2012,09,28,00,18,11.20
2012,09,28,00,19,11.20
2012,09,28,00,20,11.20
2012,09,28,00,21,11.20
2012,09,28,00,22,11.20
2012,09,28,00,23,11.20
2012,09,28,00,24,11.20
2012,09,28,00,25,11.20
2012,09,28,00,26,11.20
2012,09,28,00,27,11.20
2012,09,28,00,28,11.20
2012,09,28,00,29,11.20
2012,09,28,00,30,11.20
2012,09,28,00,31,11.20
2012,09,28,00,32,11.20
2012,09,28,00,33,11.10
2012,09,28,00,34,11.10
2012,09,28,00,35,11.10
2012,09,28,00,36,11.10
2012,09,28,00,37,11.10
2012,09,28,00,38,11.20
2012,09,28,00,39,11.20
2012,09,28,00,40,11.20
2012,09,28,00,41,11.20
2012,09,28,00,42,11.20
2012,09,28,00,43,11.20
2012,09,28,00,44,11.20
2012,09,28,00,45,11.20
2012,09,28,00,46,11.20
2012,09,28,00,47,11.20
2012,09,28,00,48,11.20
2012,09,28,00,49,11.30
2012,09,28,00,50,11.30
2012,09,28,00,51,11.30
2012,09,28,00,52,11.30
2012,09,28,00,53,11.30
2012,09,28,00,54,11.30
2012,09,28,00,55,11.30
2012,09,28,00,56,11.30
2012,09,28,00,57,11.30
2012,09,28,00,58,11.30
2012,09,28,00,59,11.30
2012,09,28,01,00,11.30
2012,09,28,01,01,11.30
2012,09,28,01,02,11.30
2012,09,28,01,03,11.30
2012,09,28,01,04,11.30
2012,09,28,01,05,11.30
2012,09,28,01,06,11.30
2012,09,28,01,07,11.30
2012,09,28,01,08,11.30
2012,09,28,01,09,11.30
2012,09,28,01,10,11.30
2012,09,28,01,11,11.30
2012,09,28,01,12,11.30
2012,09,28,01,13,11.30
2012,09,28,01,14,11.30
2012,09,28,01,15,11.30
2012,09,28,01,16,11.40
2012,09,28,01,17,11.30
2012,09,28,01,18,11.30
2012,09,28,01,19,11.30
2012,09,28,01,20,11.30
2012,09,28,01,21,11.30
2012,09,28,01,22,11.40
2012,09,28,01,23,11.40
2012,09,28,01,24,11.40
2012,09,28,01,25,11.40
2012,09,28,01,26,11.40
2012,09,28,01,27,11.40
2012,09,28,01,28,11.40
2012,09,28,01,29,11.40
2012,09,28,01,30,11.40
2012,09,28,01,31,11.50
2012,09,28,01,32,11.50
2012,09,28,01,33,11.50
2012,09,28,01,34,11.50
2012,09,28,01,35,11.50
2012,09,28,01,36,11.50
2012,09,28,01,37,11.50
2012,09,28,01,38,11.50
2012,09,28,01,39,11.50
2012,09,28,01,40,11.50
2012,09,28,01,41,11.50
2012,09,28,01,42,11.50
2012,09,28,01,43,11.50
2012,09,28,01,44,11.50
2012,09,28,01,45,11.50
2012,09,28,01,46,11.50
2012,09,28,01,47,11.50
2012,09,28,01,48,11.50
2012,09,28,01,49,11.50
2012,09,28,01,50,11.50
2012,09,28,01,51,11.50
2012,09,28,01,52,11.50
2012,09,28,01,53,11.50
2012,09,28,01,54,11.50
2012,09,28,01,55,11.40
2012,09,28,01,56,11.40
2012,09,28,01,57,11.40
2012,09,28,01,58,11.40
2012,09,28,01,59,11.40
2012,09,28,02,00,11.40
2012,09,28,02,01,11.40
2012,09,28,02,02,11.40
2012,09,28,02,03,11.40
2012,09,28,02,04,11.40
2012,09,28,02,05,11.40
2012,09,28,02,06,11.40
2012,09,28,02,07,11.40
2012,09,28,02,08,11.40
2012,09,28,02,09,11.40
2012,09,28,02,10,11.40
2012,09,28,02,11,11.40
2012,09,28,02,12,11.40
2012,09,28,02,13,11.40
2012,09,28,02,14,11.40
2012,09,28,02,15,11.40
2012,09,28,02,16,11.40
2012,09,28,02,17,11.40
2012,09,28,02,18,11.40
2012,09,28,02,19,11.40
2012,09,28,02,20,11.40
2012,09,28,02,21,11.40
2012,09,28,02,22,11.40
2012,09,28,02,23,11.40
2012,09,28,02,24,11.40
2012,09,28,02,25,11.40
2012,09,28,02,26,11.40
2012,09,28,02,27,11.40
2012,09,28,02,28,11.40
2012,09,28,02,29,11.40
2012,09,28,02,30,11.40
2012,09,28,02,31,11.50
2012,09,28,02,32,11.50
2012,09,28,02,33,11.50
2012,09,28,02,34,11.50
2012,09,28,02,35,11.50
2012,09,28,02,36,11.50
2012,09,28,02,37,11.60
2012,09,28,02,38,11.60
2012,09,28,02,39,11.60
2012,09,28,02,40,11.60
2012,09,28,02,41,11.60
2012,09,28,02,42,11.60
2012,09,28,02,43,11.60
2012,09,28,02,44,11.60
2012,09,28,02,45,11.60
2012,09,28,02,46,11.60
2012,09,28,02,47,11.70
2012,09,28,02,48,11.70
2012,09,28,02,49,11.70
2012,09,28,02,50,11.70
2012,09,28,02,51,11.70
2012,09,28,02,52,11.70
2012,09,28,02,53,11.70
2012,09,28,02,54,11.70
2012,09,28,02,55,11.70
2012,09,28,02,56,11.70
2012,09,28,02,57,11.70
2012,09,28,02,58,11.70
2012,09,28,02,59,11.70
2012,09,28,03,00,11.70
2012,09,28,03,01,11.70
2012,09,28,03,02,11.70
2012,09,28,03,03,11.70
2012,09,28,03,04,11.70
2012,09,28,03,05,11.70
2012,09,28,03,06,11.70
2012,09,28,03,07,11.70
2012,09,28,03,08,11.70
2012,09,28,03,09,11.70
2012,09,28,03,10,11.70
2012,09,28,03,11,11.70
2012,09,28,03,12,11.70
2012,09,28,03,13,11.70
2012,09,28,03,14,11.60
2012,09,28,03,15,11.60
2012,09,28,03,16,11.60
2012,09,28,03,17,11.60
2012,09,28,03,18,11.60
2012,09,28,03,19,11.60
2012,09,28,03,20,11.60
2012,09,28,03,21,11.60
2012,09,28,03,22,11.60
2012,09,28,03,23,11.60
2012,09,28,03,24,11.60
2012,09,28,03,25,11.60
2012,09,28,03,26,11.60
2012,09,28,03,27,11.60
2012,09,28,03,28,11.60
2012,09,28,03,29,11.60
2012,09,28,03,30,11.60
2012,09,28,03,31,11.60
2012,09,28,03,32,11.60
2012,09,28,03,33,11.60
2012,09,28,03,34,11.60
2012,09,28,03,35,11.60
2012,09,28,03,36,11.60
2012,09,28,03,37,11.60
2012,09,28,03,38,11.60
2012,09,28,03,39,11.60
2012,09,28,03,40,11.60
2012,09,28,03,41,11.60
2012,09,28,03,42,11.50
2012,09,28,03,43,11.50
2012,09,28,03,44,11.50
2012,09,28,03,45,11.50
2012,09,28,03,46,11.50
2012,09,28,03,47,11.60
2012,09,28,03,48,11.60
2012,09,28,03,49,11.60
2012,09,28,03,50,11.60
2012,09,28,03,51,11.60
2012,09,28,03,52,11.60
2012,09,28,03,53,11.60
2012,09,28,03,54,11.60
2012,09,28,03,55,11.60
2012,09,28,03,56,11.50
2012,09,28,03,57,11.50
2012,09,28,03,58,11.50
2012,09,28,03,59,11.50
2012,09,28,04,00,11.50
2012,09,28,04,01,11.50
2012,09,28,04,02,11.50
2012,09,28,04,03,11.50
2012,09,28,04,04,11.50
2012,09,28,04,05,11.50
2012,09,28,04,06,11.50
2012,09,28,04,07,11.50
2012,09,28,04,08,11.40
2012,09,28,04,09,11.40
2012,09,28,04,10,11.40
2012,09,28,04,11,11.40
2012,09,28,04,12,11.40
2012,09,28,04,13,11.40
2012,09,28,04,14,11.40
2012,09,28,04,15,11.50
2012,09,28,04,16,11.50
2012,09,28,04,17,11.50
2012,09,28,04,18,11.50
2012,09,28,04,19,11.50
2012,09,28,04,20,11.50
2012,09,28,04,21,11.50
2012,09,28,04,22,11.50
2012,09,28,04,23,11.50
2012,09,28,04,24,11.50
2012,09,28,04,25,11.50
2012,09,28,04,26,11.50
2012,09,28,04,27,11.50
2012,09,28,04,28,11.40
2012,09,28,04,29,11.40
2012,09,28,04,30,11.40
2012,09,28,04,31,11.40
2012,09,28,04,32,11.40
2012,09,28,04,33,11.40
2012,09,28,04,34,11.40
2012,09,28,04,35,11.40
2012,09,28,04,36,11.40
2012,09,28,04,37,11.40
2012,09,28,04,38,11.40
2012,09,28,04,39,11.40
2012,09,28,04,40,11.40
2012,09,28,04,41,11.40
2012,09,28,04,42,11.40
2012,09,28,04,43,11.40
2012,09,28,04,44,11.40
2012,09,28,04,45,11.40
2012,09,28,04,46,11.40
2012,09,28,04,47,11.30
2012,09,28,04,48,11.30
2012,09,28,04,49,11.30
2012,09,28,04,50,11.30
2012,09,28,04,51,11.30
2012,09,28,04,52,11.30
2012,09,28,04,53,11.30
2012,09,28,04,54,11.30
2012,09,28,04,55,11.30
2012,09,28,04,56,11.30
2012,09,28,04,57,11.30
2012,09,28,04,58,11.30
2012,09,28,04,59,11.30
2012,09,28,05,00,11.30
2012,09,28,05,01,11.30
2012,09,28,05,02,11.30
2012,09,28,05,03,11.30
2012,09,28,05,04,11.30
2012,09,28,05,05,11.30
2012,09,28,05,06,11.20
2012,09,28,05,07,11.20
2012,09,28,05,08,11.20
2012,09,28,05,09,11.20
2012,09,28,05,10,11.20
2012,09,28,05,11,11.20
2012,09,28,05,12,11.20
2012,09,28,05,13,11.30
2012,09,28,05,14,11.30
2012,09,28,05,15,11.30
2012,09,28,05,16,11.30
2012,09,28,05,17,11.30
2012,09,28,05,18,11.30
2012,09,28,05,19,11.30
2012,09,28,05,20,11.30
2012,09,28,05,21,11.30
2012,09,28,05,22,11.40
2012,09,28,05,23,11.30
2012,09,28,05,24,11.30
2012,09,28,05,25,11.30
2012,09,28,05,26,11.30
2012,09,28,05,27,11.30
2012,09,28,05,28,11.30
2012,09,28,05,29,11.30
2012,09,28,05,30,11.30
2012,09,28,05,31,11.30
2012,09,28,05,32,11.30
2012,09,28,05,33,11.40
2012,09,28,05,34,11.40
2012,09,28,05,35,11.40
2012,09,28,05,36,11.40
2012,09,28,05,37,11.40
2012,09,28,05,38,11.40
2012,09,28,05,39,11.40
2012,09,28,05,40,11.40
2012,09,28,05,41,11.40
2012,09,28,05,42,11.40
2012,09,28,05,43,11.40
2012,09,28,05,44,11.40
2012,09,28,05,45,11.40
2012,09,28,05,46,11.40
2012,09,28,05,47,11.40
2012,09,28,05,48,11.40
2012,09,28,05,49,11.40
2012,09,28,05,50,11.40
2012,09,28,05,51,11.30
2012,09,28,05,52,11.30
2012,09,28,05,53,11.30
2012,09,28,05,54,11.30
2012,09,28,05,55,11.30
2012,09,28,05,56,11.30
2012,09,28,05,57,11.30
2012,09,28,05,58,11.30
2012,09,28,05,59,11.30
2012,09,28,06,00,11.30
2012,09,28,06,01,11.30
2012,09,28,06,02,11.30
2012,09,28,06,03,11.30
2012,09,28,06,04,11.30
2012,09,28,06,05,11.30
2012,09,28,06,06,11.30
2012,09,28,06,07,11.30
2012,09,28,06,08,11.30
2012,09,28,06,09,11.30
2012,09,28,06,10,11.30
2012,09,28,06,11,11.30
2012,09,28,06,12,11.30
2012,09,28,06,13,11.20
2012,09,28,06,14,11.30
2012,09,28,06,15,11.30
2012,09,28,06,16,11.30
2012,09,28,06,17,11.30
2012,09,28,06,18,11.30
2012,09,28,06,19,11.30
2012,09,28,06,20,11.30
2012,09,28,06,21,11.30
2012,09,28,06,22,11.30
2012,09,28,06,23,11.30
2012,09,28,06,24,11.30
2012,09,28,06,25,11.40
2012,09,28,06,26,11.40
2012,09,28,06,27,11.40
2012,09,28,06,28,11.40
2012,09,28,06,29,11.50
2012,09,28,06,30,11.50
2012,09,28,06,31,11.50
2012,09,28,06,32,11.60
2012,09,28,06,33,11.60
2012,09,28,06,34,11.60
2012,09,28,06,35,11.70
2012,09,28,06,36,11.70
2012,09,28,06,37,11.70
2012,09,28,06,38,11.70
2012,09,28,06,39,11.70
2012,09,28,06,40,11.70
2012,09,28,06,41,11.70
2012,09,28,06,42,11.70
2012,09,28,06,43,11.70
2012,09,28,06,44,11.70
2012,09,28,06,45,11.70
2012,09,28,06,46,11.70
2012,09,28,06,47,11.70
2012,09,28,06,48,11.60
2012,09,28,06,49,11.70
2012,09,28,06,50,11.70
2012,09,28,06,51,11.70
2012,09,28,06,52,11.70
2012,09,28,06,53,11.70
2012,09,28,06,54,11.70
2012,09,28,06,55,11.70
2012,09,28,06,56,11.70
2012,09,28,06,57,11.70
2012,09,28,06,58,11.60
2012,09,28,06,59,11.60
2012,09,28,07,00,11.60
2012,09,28,07,01,11.70
2012,09,28,07,02,11.70
2012,09,28,07,03,11.70
2012,09,28,07,04,11.70
2012,09,28,07,05,11.70
2012,09,28,07,06,11.70
2012,09,28,07,07,11.70
2012,09,28,07,08,11.70
2012,09,28,07,09,11.70
2012,09,28,07,10,11.70
2012,09,28,07,11,11.70
2012,09,28,07,12,11.70
2012,09,28,07,13,11.70
2012,09,28,07,14,11.70
2012,09,28,07,15,11.70
2012,09,28,07,16,11.70
2012,09,28,07,17,11.70
2012,09,28,07,18,11.70
2012,09,28,07,19,11.70
2012,09,28,07,20,11.70
2012,09,28,07,21,11.70
2012,09,28,07,22,11.80
2012,09,28,07,23,11.80
2012,09,28,07,24,11.80
2012,09,28,07,25,11.80
2012,09,28,07,26,11.80
2012,09,28,07,27,11.80
2012,09,28,07,28,11.80
2012,09,28,07,29,11.80
2012,09,28,07,30,11.80
2012,09,28,07,31,11.80
2012,09,28,07,32,11.90
2012,09,28,07,33,11.90
2012,09,28,07,34,11.90
2012,09,28,07,35,11.90
2012,09,28,07,36,11.90
2012,09,28,07,37,11.90
2012,09,28,07,38,11.90
2012,09,28,07,39,11.90
2012,09,28,07,40,11.90
2012,09,28,07,41,11.90
2012,09,28,07,42,11.90
2012,09,28,07,43,11.90
2012,09,28,07,44,11.90
2012,09,28,07,45,11.90
2012,09,28,07,46,11.90
2012,09,28,07,47,11.90
2012,09,28,07,48,11.90
2012,09,28,07,49,11.90
2012,09,28,07,50,11.90
2012,09,28,07,51,11.90
2012,09,28,07,52,11.90
2012,09,28,07,53,12.00
2012,09,28,07,54,12.00
2012,09,28,07,55,12.10
2012,09,28,07,56,12.10
2012,09,28,07,57,12.10
2012,09,28,07,58,12.10
2012,09,28,07,59,12.10
2012,09,28,08,00,12.10
2012,09,28,08,01,12.10
2012,09,28,08,02,12.10
2012,09,28,08,03,12.10
2012,09,28,08,04,12.20
2012,09,28,08,05,12.20
2012,09,28,08,06,12.20
2012,09,28,08,07,12.20
2012,09,28,08,08,12.20
2012,09,28,08,09,12.30
2012,09,28,08,10,12.30
2012,09,28,08,11,12.30
2012,09,28,08,12,12.30
2012,09,28,08,13,12.30
2012,09,28,08,14,12.30
2012,09,28,08,15,12.40
2012,09,28,08,16,12.40
2012,09,28,08,17,12.40
2012,09,28,08,18,12.50
2012,09,28,08,19,12.50
2012,09,28,08,20,12.60
2012,09,28,08,21,12.60
2012,09,28,08,22,12.60
2012,09,28,08,23,12.70
2012,09,28,08,24,12.70
2012,09,28,08,25,12.70
2012,09,28,08,26,12.80
2012,09,28,08,27,12.80
2012,09,28,08,28,12.90
2012,09,28,08,29,12.90
2012,09,28,08,30,12.90
2012,09,28,08,31,12.90
2012,09,28,08,32,12.90
2012,09,28,08,33,12.90
2012,09,28,08,34,12.90
2012,09,28,08,35,12.90
2012,09,28,08,36,12.90
2012,09,28,08,37,12.90
2012,09,28,08,38,12.80
2012,09,28,08,39,12.80
2012,09,28,08,40,12.80
2012,09,28,08,41,12.80
2012,09,28,08,42,12.90
2012,09,28,08,43,12.90
2012,09,28,08,44,12.90
2012,09,28,08,45,12.90
2012,09,28,08,46,12.90
2012,09,28,08,47,12.90
2012,09,28,08,48,12.90
2012,09,28,08,49,13.00
2012,09,28,08,50,13.00
2012,09,28,08,51,13.10
2012,09,28,08,52,13.10
2012,09,28,08,53,13.20
2012,09,28,08,54,13.30
2012,09,28,08,55,13.30
2012,09,28,08,56,13.40
2012,09,28,08,57,13.50
2012,09,28,08,58,13.50
2012,09,28,08,59,13.60
2012,09,28,09,00,13.70
2012,09,28,09,01,13.70
2012,09,28,09,02,13.80
2012,09,28,09,03,13.90
2012,09,28,09,04,13.90
2012,09,28,09,05,14.00
2012,09,28,09,06,14.00
2012,09,28,09,07,14.00
2012,09,28,09,08,14.00
2012,09,28,09,09,14.00
2012,09,28,09,10,14.10
2012,09,28,09,11,14.10
2012,09,28,09,12,14.10
2012,09,28,09,13,14.10
2012,09,28,09,14,14.10
2012,09,28,09,15,14.10
2012,09,28,09,16,14.10
2012,09,28,09,17,14.20
2012,09,28,09,18,14.20
2012,09,28,09,19,14.20
2012,09,28,09,20,14.30
2012,09,28,09,21,14.30
2012,09,28,09,22,14.40
2012,09,28,09,23,14.50
2012,09,28,09,24,14.50
2012,09,28,09,25,14.60
2012,09,28,09,26,14.60
2012,09,28,09,27,14.70
2012,09,28,09,28,14.70
2012,09,28,09,29,14.70
2012,09,28,09,30,14.80
2012,09,28,09,31,14.80
2012,09,28,09,32,14.90
2012,09,28,09,33,14.90
2012,09,28,09,34,15.00
2012,09,28,09,35,15.00
2012,09,28,09,36,15.10
2012,09,28,09,37,15.20
2012,09,28,09,38,15.20
2012,09,28,09,39,15.20
2012,09,28,09,40,15.30
2012,09,28,09,41,15.30
2012,09,28,09,42,15.40
2012,09,28,09,43,15.40
2012,09,28,09,44,15.40
2012,09,28,09,45,15.40
2012,09,28,09,46,15.40
2012,09,28,09,47,15.40
2012,09,28,09,48,15.50
2012,09,28,09,49,15.50
2012,09,28,09,50,15.50
2012,09,28,09,51,15.60
2012,09,28,09,52,15.60
2012,09,28,09,53,15.70
2012,09,28,09,54,15.70
2012,09,28,09,55,15.80
2012,09,28,09,56,15.80
2012,09,28,09,57,15.90
2012,09,28,09,58,15.90
2012,09,28,09,59,16.00
2012,09,28,10,00,16.00
2012,09,28,10,01,16.00
2012,09,28,10,02,16.10
2012,09,28,10,03,16.10
2012,09,28,10,04,16.10
2012,09,28,10,05,16.20
2012,09,28,10,06,16.20
2012,09,28,10,07,16.20
2012,09,28,10,08,16.30
2012,09,28,10,09,16.30
2012,09,28,10,10,16.30
2012,09,28,10,11,16.40
2012,09,28,10,12,16.40
2012,09,28,10,13,16.40
2012,09,28,10,14,16.50
2012,09,28,10,15,16.50
2012,09,28,10,16,16.50
2012,09,28,10,17,16.40
2012,09,28,10,18,16.40
2012,09,28,10,19,16.50
2012,09,28,10,20,16.50
2012,09,28,10,21,16.60
2012,09,28,10,22,16.60
2012,09,28,10,23,16.60
2012,09,28,10,24,16.60
2012,09,28,10,25,16.60
2012,09,28,10,26,16.60
2012,09,28,10,27,16.60
2012,09,28,10,28,16.60
2012,09,28,10,29,16.60
2012,09,28,10,30,16.50
2012,09,28,10,31,16.50
2012,09,28,10,32,16.50
2012,09,28,10,33,16.50
2012,09,28,10,34,16.40
2012,09,28,10,35,16.40
2012,09,28,10,36,16.40
2012,09,28,10,37,16.40
2012,09,28,10,38,16.40
2012,09,28,10,39,16.40
2012,09,28,10,40,16.40
2012,09,28,10,41,16.40
2012,09,28,10,42,16.40
2012,09,28,10,43,16.40
2012,09,28,10,44,16.40
2012,09,28,10,45,16.40
2012,09,28,10,46,16.40
2012,09,28,10,47,16.40
2012,09,28,10,48,16.40
2012,09,28,10,49,16.40
2012,09,28,10,50,16.40
2012,09,28,10,51,16.30
2012,09,28,10,52,16.30
2012,09,28,10,53,16.30
2012,09,28,10,54,16.20
2012,09,28,10,55,16.20
2012,09,28,10,56,16.20
2012,09,28,10,57,16.20
2012,09,28,10,58,16.10
2012,09,28,10,59,16.10
2012,09,28,11,00,16.00
2012,09,28,11,01,16.00
2012,09,28,11,02,16.00
2012,09,28,11,03,15.90
2012,09,28,11,04,15.90
2012,09,28,11,05,15.90
2012,09,28,11,06,15.90
2012,09,28,11,07,15.90
2012,09,28,11,08,15.90
2012,09,28,11,09,15.90
2012,09,28,11,10,15.80
2012,09,28,11,11,15.80
2012,09,28,11,12,15.80
2012,09,28,11,13,15.80
2012,09,28,11,14,15.80
2012,09,28,11,15,15.80
2012,09,28,11,16,15.80
2012,09,28,11,17,15.80
2012,09,28,11,18,15.80
2012,09,28,11,19,15.80
2012,09,28,11,20,15.80
2012,09,28,11,21,15.80
2012,09,28,11,22,15.80
2012,09,28,11,23,15.80
2012,09,28,11,24,15.80
2012,09,28,11,25,15.80
2012,09,28,11,26,15.80
2012,09,28,11,27,15.80
2012,09,28,11,28,15.70
2012,09,28,11,29,15.70
2012,09,28,11,30,15.70
2012,09,28,11,31,15.70
2012,09,28,11,32,15.70
2012,09,28,11,33,15.70
2012,09,28,11,34,15.70
2012,09,28,11,35,15.70
2012,09,28,11,36,15.70
2012,09,28,11,37,15.60
2012,09,28,11,38,15.60
2012,09,28,11,39,15.50
2012,09,28,11,40,15.50
2012,09,28,11,41,15.40
2012,09,28,11,42,15.40
2012,09,28,11,43,15.40
2012,09,28,11,44,15.30
2012,09,28,11,45,15.30
2012,09,28,11,46,15.30
2012,09,28,11,47,15.30
2012,09,28,11,48,15.30
2012,09,28,11,49,15.30
2012,09,28,11,50,15.20
2012,09,28,11,51,15.20
2012,09,28,11,52,15.20
2012,09,28,11,53,15.10
2012,09,28,11,54,15.10
2012,09,28,11,55,15.10
2012,09,28,11,56,15.00
2012,09,28,11,57,15.00
2012,09,28,11,58,15.00
2012,09,28,11,59,14.90
2012,09,28,12,00,14.90
2012,09,28,12,01,14.90
2012,09,28,12,02,14.90
2012,09,28,12,03,14.80
2012,09,28,12,04,14.80
2012,09,28,12,05,14.80
2012,09,28,12,06,14.80
2012,09,28,12,07,14.80
2012,09,28,12,08,14.80
2012,09,28,12,09,14.80
2012,09,28,12,10,14.80
2012,09,28,12,11,14.80
2012,09,28,12,12,14.80
2012,09,28,12,13,14.80
2012,09,28,12,14,14.80
2012,09,28,12,15,14.80
2012,09,28,12,16,14.80
2012,09,28,12,17,14.80
2012,09,28,12,18,14.80
2012,09,28,12,19,14.80
2012,09,28,12,20,14.80
2012,09,28,12,21,14.80
2012,09,28,12,22,14.80
2012,09,28,12,23,14.80
2012,09,28,12,24,14.90
2012,09,28,12,25,14.90
2012,09,28,12,26,14.90
2012,09,28,12,27,14.80
2012,09,28,12,28,14.80
2012,09,28,12,29,14.80
2012,09,28,12,30,14.80
2012,09,28,12,31,14.80
2012,09,28,12,32,14.80
2012,09,28,12,33,14.80
2012,09,28,12,34,14.80
2012,09,28,12,35,14.90
2012,09,28,12,36,14.90
2012,09,28,12,37,14.90
2012,09,28,12,38,14.90
2012,09,28,12,39,14.90
2012,09,28,12,40,14.90
2012,09,28,12,41,14.80
2012,09,28,12,42,14.80
2012,09,28,12,43,14.80
2012,09,28,12,44,14.80
2012,09,28,12,45,14.80
2012,09,28,12,46,14.80
2012,09,28,12,47,14.90
2012,09,28,12,48,14.90
2012,09,28,12,49,14.90
2012,09,28,12,50,14.90
2012,09,28,12,51,14.90
2012,09,28,12,52,14.90
2012,09,28,12,53,14.90
2012,09,28,12,54,14.90
2012,09,28,12,55,14.90
2012,09,28,12,56,14.90
2012,09,28,12,57,14.90
2012,09,28,12,58,14.90
2012,09,28,12,59,14.90
2012,09,28,13,00,14.90
2012,09,28,13,01,14.90
2012,09,28,13,02,14.90
2012,09,28,13,03,14.90
2012,09,28,13,04,14.80
2012,09,28,13,05,14.80
2012,09,28,13,06,14.70
2012,09,28,13,07,14.70
2012,09,28,13,08,14.60
2012,09,28,13,09,14.60
2012,09,28,13,10,14.60
2012,09,28,13,11,14.60
2012,09,28,13,12,14.60
2012,09,28,13,13,14.60
2012,09,28,13,14,14.60
2012,09,28,13,15,14.70
2012,09,28,13,16,14.70
2012,09,28,13,17,14.60
2012,09,28,13,18,14.60
2012,09,28,13,19,14.60
2012,09,28,13,20,14.60
2012,09,28,13,21,14.60
2012,09,28,13,22,14.60
2012,09,28,13,23,14.60
2012,09,28,13,24,14.50
2012,09,28,13,25,14.50
2012,09,28,13,26,14.40
2012,09,28,13,27,14.40
2012,09,28,13,28,14.40
2012,09,28,13,29,14.40
2012,09,28,13,30,14.40
2012,09,28,13,31,14.40
2012,09,28,13,32,14.40
2012,09,28,13,33,14.40
2012,09,28,13,34,14.40
2012,09,28,13,35,14.40
2012,09,28,13,36,14.50
2012,09,28,13,37,14.50
2012,09,28,13,38,14.50
2012,09,28,13,39,14.50
2012,09,28,13,40,14.60
2012,09,28,13,41,14.60
2012,09,28,13,42,14.60
2012,09,28,13,43,14.60
2012,09,28,13,44,14.60
2012,09,28,13,45,14.60
2012,09,28,13,46,14.60
2012,09,28,13,47,14.70
2012,09,28,13,48,14.60
2012,09,28,13,49,14.60
2012,09,28,13,50,14.60
2012,09,28,13,51,14.60
2012,09,28,13,52,14.70
2012,09,28,13,53,14.80
2012,09,28,13,54,14.80
2012,09,28,13,55,14.80
2012,09,28,13,56,14.80
2012,09,28,13,57,14.90
2012,09,28,13,58,14.90
2012,09,28,13,59,14.90
2012,09,28,14,00,14.90
2012,09,28,14,01,14.90
2012,09,28,14,02,14.90
2012,09,28,14,03,14.90
2012,09,28,14,04,14.90
2012,09,28,14,05,14.90
2012,09,28,14,06,14.80
2012,09,28,14,07,14.80
2012,09,28,14,08,14.80
2012,09,28,14,09,14.80
2012,09,28,14,10,14.80
2012,09,28,14,11,14.90
2012,09,28,14,12,14.90
2012,09,28,14,13,14.90
2012,09,28,14,14,15.00
2012,09,28,14,15,15.00
2012,09,28,14,16,15.10
2012,09,28,14,17,15.10
2012,09,28,14,18,15.10
2012,09,28,14,19,15.20
2012,09,28,14,20,15.20
2012,09,28,14,21,15.20
2012,09,28,14,22,15.20
2012,09,28,14,23,15.30
2012,09,28,14,24,15.30
2012,09,28,14,25,15.30
2012,09,28,14,26,15.30
2012,09,28,14,27,15.30
2012,09,28,14,28,15.30
2012,09,28,14,29,15.30
2012,09,28,14,30,15.30
2012,09,28,14,31,15.30
2012,09,28,14,32,15.30
2012,09,28,14,33,15.30
2012,09,28,14,34,15.30
2012,09,28,14,35,15.30
2012,09,28,14,36,15.30
2012,09,28,14,37,15.30
2012,09,28,14,38,15.30
2012,09,28,14,39,15.30
2012,09,28,14,40,15.30
2012,09,28,14,41,15.30
2012,09,28,14,42,15.30
2012,09,28,14,43,15.30
2012,09,28,14,44,15.30
2012,09,28,14,45,15.30
2012,09,28,14,46,15.30
2012,09,28,14,47,15.30
2012,09,28,14,48,15.30
2012,09,28,14,49,15.30
2012,09,28,14,50,15.30
2012,09,28,14,51,15.30
2012,09,28,14,52,15.30
2012,09,28,14,53,15.30
2012,09,28,14,54,15.40
2012,09,28,14,55,15.40
2012,09,28,14,56,15.40
2012,09,28,14,57,15.40
2012,09,28,14,58,15.40
2012,09,28,14,59,15.40
2012,09,28,15,00,15.40
2012,09,28,15,01,15.30
2012,09,28,15,02,15.30
2012,09,28,15,03,15.30
2012,09,28,15,04,15.30
2012,09,28,15,05,15.30
2012,09,28,15,06,15.30
2012,09,28,15,07,15.30
2012,09,28,15,08,15.30
2012,09,28,15,09,15.30
2012,09,28,15,10,15.30
2012,09,28,15,11,15.30
2012,09,28,15,12,15.40
2012,09,28,15,13,15.50
2012,09,28,15,14,15.60
2012,09,28,15,15,15.70
2012,09,28,15,16,15.80
2012,09,28,15,17,15.90
2012,09,28,15,18,16.00
2012,09,28,15,19,16.20
2012,09,28,15,20,16.30
2012,09,28,15,21,16.30
2012,09,28,15,22,16.30
2012,09,28,15,23,16.30
2012,09,28,15,24,16.30
2012,09,28,15,25,16.30
2012,09,28,15,26,16.30
2012,09,28,15,27,16.20
2012,09,28,15,28,16.20
2012,09,28,15,29,16.20
2012,09,28,15,30,16.20
2012,09,28,15,31,16.20
2012,09,28,15,32,16.30
2012,09,28,15,33,16.30
2012,09,28,15,34,16.30
2012,09,28,15,35,16.30
2012,09,28,15,36,16.30
2012,09,28,15,37,16.30
2012,09,28,15,38,16.40
2012,09,28,15,39,16.40
2012,09,28,15,40,16.40
2012,09,28,15,41,16.40
2012,09,28,15,42,16.40
2012,09,28,15,43,16.40
2012,09,28,15,44,16.40
2012,09,28,15,45,16.50
2012,09,28,15,46,16.50
2012,09,28,15,47,16.60
2012,09,28,15,48,16.60
2012,09,28,15,49,16.60
2012,09,28,15,50,16.70
2012,09,28,15,51,16.70
2012,09,28,15,52,16.70
2012,09,28,15,53,16.70
2012,09,28,15,54,16.70
2012,09,28,15,55,16.80
2012,09,28,15,56,16.80
2012,09,28,15,57,16.80
2012,09,28,15,58,16.80
2012,09,28,15,59,16.80
2012,09,28,16,00,16.80
2012,09,28,16,01,16.80
2012,09,28,16,02,16.80
2012,09,28,16,03,16.80
2012,09,28,16,04,16.80
2012,09,28,16,05,16.80
2012,09,28,16,06,16.80
2012,09,28,16,07,16.90
2012,09,28,16,08,16.90
2012,09,28,16,09,16.90
2012,09,28,16,10,16.90
2012,09,28,16,11,16.90
2012,09,28,16,12,16.90
2012,09,28,16,13,16.90
2012,09,28,16,14,17.00
2012,09,28,16,15,17.10
2012,09,28,16,16,17.10
2012,09,28,16,17,17.10
2012,09,28,16,18,17.10
2012,09,28,16,19,17.10
2012,09,28,16,20,17.10
2012,09,28,16,21,17.10
2012,09,28,16,22,17.10
2012,09,28,16,23,17.20
2012,09,28,16,24,17.10
2012,09,28,16,25,17.10
2012,09,28,16,26,17.00
2012,09,28,16,27,16.90
2012,09,28,16,28,16.90
2012,09,28,16,29,16.80
2012,09,28,16,30,16.80
2012,09,28,16,31,16.80
2012,09,28,16,32,16.80
2012,09,28,16,33,16.90
2012,09,28,16,34,16.90
2012,09,28,16,35,17.00
2012,09,28,16,36,17.00
2012,09,28,16,37,17.10
2012,09,28,16,38,17.10
2012,09,28,16,39,17.20
2012,09,28,16,40,17.20
2012,09,28,16,41,17.30
2012,09,28,16,42,17.40
2012,09,28,16,43,17.50
2012,09,28,16,44,17.60
2012,09,28,16,45,17.60
2012,09,28,16,46,17.70
2012,09,28,16,47,17.70
2012,09,28,16,48,17.70
2012,09,28,16,49,17.70
2012,09,28,16,50,17.70
2012,09,28,16,51,17.70
2012,09,28,16,52,17.60
2012,09,28,16,53,17.60
2012,09,28,16,54,17.60
2012,09,28,16,55,17.60
2012,09,28,16,56,17.60
2012,09,28,16,57,17.50
2012,09,28,16,58,17.40
2012,09,28,16,59,17.40
2012,09,28,17,00,17.30
2012,09,28,17,01,17.30
2012,09,28,17,02,17.20
2012,09,28,17,03,17.20
2012,09,28,17,04,17.20
2012,09,28,17,05,17.20
2012,09,28,17,06,17.20
2012,09,28,17,07,17.20
2012,09,28,17,08,17.20
2012,09,28,17,09,17.20
2012,09,28,17,10,17.10
2012,09,28,17,11,17.10
2012,09,28,17,12,17.10
2012,09,28,17,13,17.10
2012,09,28,17,14,17.10
2012,09,28,17,15,17.10
2012,09,28,17,16,17.10
2012,09,28,17,17,17.10
2012,09,28,17,18,17.10
2012,09,28,17,19,17.00